Regional Weather Roundup
Issued by NWS Columbia, SC

Home | Current Version | Previous Version | Text Only | Print | Product List | Glossary On
Versions: 1 2 3 4 5 6 7 8 9 10 11 12 13 14 15 16 17 18 19 20 21 22 23 24 25 26 27
000
ASUS42 KCAE 290810
RWRCAE
REGIONAL WEATHER ROUNDUP
NATIONAL WEATHER SERVICE COLUMBIA SC
400 AM EDT WED MAR 29 2017

NOTE: "FAIR" INDICATES FEW OR NO CLOUDS BELOW 12,000 FEET WITH NO
SIGNIFICANT WEATHER AND/OR OBSTRUCTIONS TO VISIBILITY.

NOT ALL STATIONS ARE QUALITY CONTROLLED BY THE NATIONAL
WEATHER SERVICE. USE DATA WITH CAUTION...ESPECIALLY
DEWPOINT OBSERVATIONS.

SCZ001>056-GAZ040-063>065-077-290900-
...UPSTATE SOUTH CAROLINA...

CITY           SKY/WX    TMP DP  RH WIND       PRES   REMARKS
ANDERSON       CLEAR     54  50  86 CALM      29.99F
LIBERTY        SUNNY     49  48  95 CALM      29.99F
SPARTANBURG    CLEAR     54  50  87 CALM      30.00S
CLEMSON        CLEAR     59  51  75 CALM      30.01F
GREENVILLE     CLEAR     60  51  72 CALM      30.01F
GREENWOOD      CLEAR     54  50  86 N3        30.00F
GREER          CLEAR     60  50  69 NE5       29.99F
ROCK HILL      CLEAR     55  49  80 CALM      29.99S
CHESTER        SUNNY     55  50  82 N5        30.00S
LAURENS        SUNNY     54  52  94 CALM      29.99F


...CENTRAL SOUTH CAROLINA...

CITY           SKY/WX    TMP DP  RH WIND       PRES   REMARKS
COLUMBIA APT   CLEAR     56  52  86 W3        29.96F
COLUMBIA OWENS CLEAR     59  55  87 CALM      29.98S
MCENTIRE ANGB  CLEAR     65  51  59 CALM      29.97S
ORANGEBURG     CLEAR     60  56  86 CALM      29.96F
SUMTER SHAW    CLEAR     60  52  73 N6        29.95S
NEWBERRY       SUNNY     57  52  82 NE6       30.01F
AIKEN          FAIR      54  52  94 CALM      30.00F
BARNWELL       FAIR      63  57  82 CALM      29.96F
MANNING        FAIR      61  54  77 N5        29.96S
CAMDEN         PTSUNNY   59  52  77 CALM      29.98S
LANCASTER      SUNNY     55  54  94 CALM      30.00S
WINNSBORO      SUNNY     61  52  72 NE5       29.98F


...EASTERN AND COASTAL SOUTH CAROLINA...

CITY           SKY/WX    TMP DP  RH WIND       PRES   REMARKS
MYRTLE BEACH   CLEAR     64  57  77 N6        29.95S
N MYRTLE BCH   CLEAR     64  57  78 N5        29.93S
CONWAY         FAIR      55  54  94 CALM      29.95S
MARION         PTSUNNY   59  54  82 CALM      29.96S
HARTSVILLE     FAIR      61  50  67 N5        29.97S
FLORENCE       PTCLDY    62  53  72 N5        29.96S
DARLINGTON     CLEAR     60  52  74 N5        29.97S
CHARLESTON APT CLEAR     63  59  87 CALM      29.94F
MOUNT PLEASANT FAIR      64  63  94 CALM      29.94S
WALTERBORO     SUNNY     61  61 100 NW3       29.96S
BEAUFORT       CLEAR     64  63  96 SW5       29.95S


...EASTERN GEORGIA...

CITY           SKY/WX    TMP DP  RH WIND       PRES   REMARKS
AUGUSTA BUSH F CLEAR     58  55  90 CALM      29.96F
AUGUSTA DANIEL CLEAR     66  54  65 N8        29.97F
THOMSON        CLEAR     55  53  95 CALM      30.02F
WASHINGTON     FAIR      63  55  77 CALM      29.98F
CLAXTON        FAIR     N/A N/A N/A CALM      29.97S
SYLVANIA       SUNNY    N/A N/A N/A CALM      29.96F
STATESBORO     CLEAR     60  60 100 CALM      29.96F
SAVANNAH       CLEAR     64  58  80 SW6       29.96F


...SOUTHERN NORTH CAROLINA...

CITY           SKY/WX    TMP DP  RH WIND       PRES   REMARKS
CHARLOTTE      CLEAR     56  49  77 N5        30.00S
MONROE         CLEAR     60  48  64 N5        29.98S
WADESBORO      SUNNY     51  48  89 CALM      29.98S
ROCKINGHAM     SUNNY     60  51  72 CALM      29.97F
RUTHERFORDTON  CLEAR     57  49  75 CALM      30.01F
ASHEVILLE      CLEAR     49  45  86 CALM      30.04F

$$




USA.gov is the U.S. government's official web portal to all federal, state and local government web resources and services.